Regional Weather Roundup
Issued by NWS

Home | Current Version | Previous Version | Graphics & Text | Print | Product List | Glossary On
Versions: 1 2 3 4 5 6 7 8 9 10 11 12 13 14 15 16 17 18 19 20 21 22 23 24 25 26 27 28 29 30 31 32 33 34 35 36 37 38 39 40 41 42 43 44 45 46 47 48 49 50
050
ASUS45 KBOU 240807
RWRCO

WEATHER ROUNDUP FOR COLORADO
NATIONAL WEATHER SERVICE DENVER/BOULDER CO
200 AM MDT FRI MAR 24 2017

NOTE: "FAIR" INDICATES FEW OR NO CLOUDS BELOW 12000 FEET WITH NO
SIGNIFICANT WEATHER AND/OR OBSTRUCTIONS TO VISIBILITY.

COZ001>005-013-030-031-240900-
...NORTHWEST COLORADO...

CITY           SKY/WX    TMP DP  RH WIND       PRES   REMARKS
CRAIG          MOCLDY    37  30  75 SW5       29.94R
HAYDEN         FAIR      34  28  80 SW8       29.92R WCI  27
MEEKER         FAIR      40  33  76 VRB3      29.94R
MOUNT WERNER   NOT AVBL
STEAMBOAT SPGS FAIR      37  33  85 E3        29.89R
WALDEN         NOT AVBL
$$

COZ006>008-011-240900-
...WEST CENTRAL VALLEYS...

CITY           SKY/WX    TMP DP  RH WIND       PRES   REMARKS
GRAND JUNCTION MOCLDY    43  38  82 N12       29.91R
MONTROSE       CLOUDY    42  36  79 NW22G33   29.88R
EAGLE          CLOUDY    38  35  89 CALM      29.89R
RIFLE          MOCLDY    46  35  65 W14       29.90R
DELTA          FAIR      48  35  61 W17G28    29.85R
NUCLA          FAIR      41  36  81 NW9       29.95R
$$

COZ017>023-064>068-240900-
...SOUTHWEST COLORADO...

CITY           SKY/WX    TMP DP  RH WIND       PRES   REMARKS
DURANGO        MOCLDY    36  30  79 W16G26    29.78R
CORTEZ         FAIR      38  35  89 NW10      29.91R
PAGOSA SPRINGS LGT SNOW  32  32 100 W7        29.76F WCI  26
TELLURIDE      NOT AVBL
WOLF CREEK PAS LGT SNOW  21  21 100 NW9       29.83S WCI  11
$$

COZ009-010-012-014-032>034-037-058>063-240900-
...CENTRAL COLORADO...

CITY           SKY/WX    TMP DP  RH WIND       PRES   REMARKS
ASPEN          LGT SNOW  32  32 100 N5        29.86R FOG     WCI  27
BUENA VISTA    LGT RAIN  37  31  78 NW17G24   29.76R
COPPER MTN     CLOUDY    28  23  80 MISG      29.89R
BERTHOUD PASS  CLOUDY    19   9  63 NE6G16    29.90R WCI  11
COTTONWOOD PAS CLOUDY    34  28  80 SW8       29.79S WCI  27
GUNNISON       LGT RAIN  36  30  79 SW13      29.79R
KREMMLING      FAIR      41  32  70 NW9G17    29.86S
LEADVILLE      CLOUDY    29  25  85 N18G24    29.82R WCI  16
MONARCH PASS   CLOUDY    27  23  86 NE16      29.90R WCI  14
SALIDA         CLOUDY    41  32  71 N17G25    29.79R
SUNLIGHT       SNOW     N/A N/A N/A NW7G23    29.98R VSB<1/4
WILKERSON PASS CLOUDY    27  23  86 MISG      29.82R
$$

COZ069>075-240900-
...SAN LUIS VALLEY/SANGRE DE CRISTO MOUNTAINS...

CITY           SKY/WX    TMP DP  RH WIND       PRES   REMARKS
ALAMOSA        LGT SNOW  33  32  96 NW17      29.64R FOG     WCI  22
LA VETA PASS   NOT AVBL
SAGUACHE       LGT SNOW  34  32  93 NW20G26   29.70R WCI  22
$$

COZ035-036-038>040-240900-
...NORTHERN COLORADO FRONT RANGE...

CITY           SKY/WX    TMP DP  RH WIND       PRES   REMARKS
DENVER INTL AP LGT SNOW  34  32  92 N24G30    29.86R FOG     WCI  21
DMNS CITY PARK   N/A     38  36  93 MISG      29.86R
AURORA         LGT SNOW  33  33  99 N22G28    29.86R FOG     WCI  21
FRONT RANGE AP LGT SNOW  34  34 100 N21       29.85R WCI  22
ERIE MUNI ARPT CLOUDY    42  36  80 NE22G28   29.84R
BOULDER MUN AP CLOUDY    41  41 100 NE3       29.83R
CENTENNIAL     LGT SNOW  34  32  92 N18G28    29.84R WCI  23
BROOMFIELD     CLOUDY    39  36  87 NE20      29.85R
FORT COLLINS   FAIR      43  32  65 NE22G30   29.86R
LONGMONT       CLOUDY    45  38  78 NE10      29.86R
$$

COZ041-046-047-076>085-087-088-240900-
...PIKES PEAK/PALMER DIVIDE AND SOUTHERN FOOTHILLS...

CITY           SKY/WX    TMP DP  RH WIND       PRES   REMARKS
COLO. SPRINGS  LGT RAIN  38  35  89 N35G48    29.62F
A. F. ACADEMY  LGT SNOW  34  34  97 N32G41    29.70S FOG     WCI  20
SCHRIEVER AFB  LGT RAIN  36  32  87 N33G53    29.60  SQUALL
ELLICOTT       MIX PCPN N/A N/A N/A N48G64    29.53F
FALCON         LGT SNOW  33  32  96 N35G49    29.64F WCI  18
FORT CARSON    DRIZZLE   41  32  69 N40G56    29.58F
LIMON          LGT RAIN  41  41 100 N35G44    29.67S
MONUMENT HILL  SNOW      32  32 100 N25G33    29.79R VSB 1/2 WCI  19
TRINIDAD       HVY RAIN  43  39  86 N37G54    29.42R FOG
$$

COZ042>045-048>051-090-091-240900-
...NORTHEAST COLORADO...

CITY           SKY/WX    TMP DP  RH WIND       PRES   REMARKS
GREELEY ARPT   CLOUDY    42  33  70 N28       29.90R
AKRON          RAIN      42  39  89 N25G35    29.77R FOG
BURLINGTON     CLOUDY    52  48  86 NE29G35   29.59S
WRAY           NOT AVBL
STERLING       RAIN      43  41  93 N21G29    29.81R
HOLYOKE        RAIN      46  43  87 NE17      29.79R
FORT MORGAN    DRIZZLE   41  38  89 N33G40    29.82R
$$

COZ086-089-092>099-240900-
...SOUTHEAST COLORADO...

CITY           SKY/WX    TMP DP  RH WIND       PRES   REMARKS
PUEBLO         CLOUDY    48  35  60 N51G67    29.47R
LA JUNTA       FAIR      54  41  61 NE30G38   29.34F
LAMAR          FAIR      49  27  42 S14       29.42R
SPRINGFIELD      N/A     44  29  55 S29G37    29.40F
$$




USA.gov is the U.S. government's official web portal to all federal, state and local government web resources and services.